This is the latest recevied weather packets stored in our database for station/object N0NB. If no packets are shown the sender has not sent any weather packets the latest 10 day(s).
| Time | Temp. | Humidity | Pressure | Rain* | Wind** | Luminosity | Snow |
|---|---|---|---|---|---|---|---|
| 1778047216 | 10° C | 50% | 1014.1 hPa | 0 mm | - | 0 W/m² | - |
| 1778046616 | 10° C | 51% | 1014 hPa | 0 mm | - | 0 W/m² | - |
| 1778046016 | 10° C | 52% | 1013.8 hPa | 0 mm | - | 0 W/m² | - |
| 1778045416 | 9.44° C | 53% | 1013.9 hPa | 0 mm | - | 0 W/m² | - |
| 1778044816 | 9.44° C | 56% | 1013.7 hPa | 0 mm | - | 0 W/m² | - |
| 1778044216 | 9.44° C | 56% | 1013.5 hPa | 0 mm | - | 0 W/m² | - |
| 1778043616 | 9.44° C | 59% | 1013.7 hPa | 0 mm | - | 0 W/m² | - |
| 1778043017 | 9.44° C | 61% | 1013.5 hPa | 0 mm | - | 0 W/m² | - |
| 1778042417 | 9.44° C | 63% | 1013.4 hPa | 0 mm | - | 0 W/m² | - |
| 1778041817 | 10° C | 61% | 1013.2 hPa | 0 mm | - | 0 W/m² | - |
| 1778041217 | 10° C | 61% | 1013.7 hPa | 0 mm | - | 0 W/m² | - |
| 1778040617 | 10° C | 59% | 1013.8 hPa | 0 mm | - | 0 W/m² | - |
| 1778040017 | 10.56° C | 57% | 1014 hPa | 0 mm | - | 0 W/m² | - |
| 1778039417 | 10° C | 56% | 1013.9 hPa | 0 mm | - | 0 W/m² | - |
| 1778038817 | 9.44° C | 61% | 1013.9 hPa | 0 mm | - | 0 W/m² | - |
| 1778038217 | 9.44° C | 70% | 1013.5 hPa | 0 mm | - | 0 W/m² | - |
| 1778037617 | 10° C | 71% | 1013.2 hPa | 0 mm | - | 0 W/m² | - |
| 1778037017 | 10° C | 66% | 1012.9 hPa | 0 mm | - | 0 W/m² | - |
| 1778036417 | 10° C | 61% | 1012.7 hPa | 0 mm | - | 0 W/m² | - |
| 1778035817 | 10° C | 69% | 1012.4 hPa | 0 mm | - | 0 W/m² | - |
| 1778035217 | 10° C | 66% | 1012.1 hPa | 0 mm | - | 0 W/m² | - |
| 1778034617 | 10° C | 66% | 1011.8 hPa | 0 mm | - | 0 W/m² | - |
| 1778034017 | 10.56° C | 62% | 1011.6 hPa | 0 mm | - | 0 W/m² | - |
| 1778033417 | 10.56° C | 67% | 1011.6 hPa | 0 mm | - | 0 W/m² | - |
| 1778032817 | 11.11° C | 59% | 1011.3 hPa | 0 mm | - | 0 W/m² | - |
* Rain latest hour (hover to see other rain measurements)
** Current wind speed in m/s (hover to see current wind gust speed)